Dewpoint
67 67 67 66 65 65 65 65 62 61 62 61 61 60 60 59 59 57 58 62 62 63 61 61 61 60 60 61 62 62 62 62 62 62 61 61 61 61 60 60 59 59 59
68 66 66 66 66 66 65 64 61 59 60 61 60 60 59 59 59 59 57 59 61 62 62 61 61 61 60 59 59 59 59 59 58 57 56 57 57 58 57 57 56 56 56
68 67 66 66 67 65 64 63 61 58 59 59 60 59 59 59 58 59 59 57 59 60 61 62 61 59 59 59 58 58 57 57 57 56 55 54 54 55 54 55 55 55 54
68 68 68 67 66 65 63 61 59 56 57 58 59 58 58 58 59 59 59 58 57 56 59 60 61 60 59 58 57 57 56 57 57 55 55 55 54 54 53 53 54 55 53
68 66 67 66 66 65 63 61 59 57 56 57 57 58 58 57 58 57 58 59 59 57 56 59 59 60 60 58 57 57 57 56 55 55 54 54 53 53 53 52 54 54 53
68 67 67 66 66 64 62 61 59 58 56 56 54 56 58 58 57 57 58 57 58 59 58 57 57 56 58 59 59 57 58 56 56 55 55 54 53 53 54 53 54 53 51
67 66 66 65 65 64 63 62 60 57 55 57 55 56 56 57 58 57 57 57 57 58 58 58 57 56 55 58 59 58 58 57 57 55 55 55 54 54 53 53 53 51 52
66 66 65 64 64 64 63 61 59 57 54 56 53 54 53 54 56 57 57 57 58 57 56 57 57 56 55 54 56 59 58 57 57 56 55 55 53 54 53 53 53 52 52
66 65 65 64 64 64 62 61 60 58 54 56 56 51 52 49 54 56 57 56 57 57 56 56 57 57 56 55 55 56 56 57 58 56 57 56 55 54 53 52 53 52 52
66 66 65 64 64 64 63 61 61 59 56 54 54 53 55 54 51 52 54 56 57 56 57 56 56 56 56 55 56 54 53 54 57 58 57 56 56 55 54 53 53 53 52
67 66 65 64 63 64 63 62 60 58 56 54 53 53 54 54 55 52 51 52 55 56 56 56 56 56 56 56 55 55 53 52 53 57 58 57 56 55 54 54 54 52 53
66 66 65 64 63 63 62 62 62 60 57 57 56 53 51 50 52 52 51 52 52 54 55 56 56 56 55 55 55 53 52 50 51 54 56 57 57 56 55 54 54 53 54
66 66 65 64 63 63 62 62 61 61 59 57 57 54 53 51 49 51 49 52 52 53 54 55 56 56 54 55 55 53 52 50 50 52 54 56 56 56 56 56 55 54 54
66 66 65 64 63 63 63 62 61 61 59 59 58 58 55 55 55 52 54 53 52 52 53 54 55 56 56 55 55 52 54 49 49 50 52 53 55 55 55 55 55 55 55
65 66 65 64 63 63 62 61 60 60 59 59 59 59 57 58 56 56 57 55 53 47 50 53 54 56 56 56 55 56 55 51 49 48 49 51 52 53 53 54 54 54 54
66 65 65 64 63 63 62 61 61 60 59 59 59 57 57 57 58 58 57 55 56 52 49 50 54 56 57 54 55 56 56 52 48 47 47 48 50 51 52 52 52 52 53
66 65 64 64 63 62 62 61 60 60 59 58 58 57 56 58 57 57 58 55 54 53 51 52 54 55 57 56 55 56 55 56 54 47 46 47 47 49 50 50 50 50 51
62 65 64 63 63 63 62 61 61 61 59 59 58 58 57 57 58 59 59 57 55 56 53 53 57 56 56 57 57 57 55 54 54 50 47 46 46 47 47 48 48 48 48
53 55 58 61 63 62 62 62 61 60 60 59 59 58 58 57 57 57 58 58 57 55 56 54 56 56 56 57 57 57 57 56 54 51 46 45 45 46 46 46 47 47 47
49 50 51 52 53 53 56 59 61 60 61 60 60 60 59 59 58 58 58 57 56 56 55 54 54 54 54 55 56 55 54 55 54 53 51 48 47 46 45 46 46 46 46
47 48 48 49 50 48 47 50 52 59 59 60 61 60 60 58 54 56 58 57 56 55 55 54 53 54 51 51 52 55 54 54 54 54 53 50 50 49 47 46 47 46 46
44 46 48 46 46 45 38 39 45 50 51 53 59 59 60 53 52 48 49 50 55 56 56 54 53 53 52 51 53 52 53 51 46 50 50 49 49 49 50 49 46 46 45
42 43 44 44 43 44 38 38 38 46 47 48 49 50 55 58 53 57 48 46 46 47 48 56 54 54 54 55 53 48 51 47 52 49 50 47 48 49 49 49 45 44 45
39 42 43 44 43 42 39 38 37 45 46 47 47 48 48 50 52 56 57 55 55 54 51 50 56 56 55 56 54 53 52 50 43 40 47 40 40 41 45 48 44 44 44
36 38 38 40 43 42 38 38 38 43 44 45 45 46 47 48 44 42 52 55 53 54 49 46 48 48 47 47 52 49 40 40 35 35 37 39 34 34 36 38 41 43 43
35 37 37 38 38 40 39 37 38 40 40 42 43 43 39 43 40 38 46 49 50 50 47 45 46 46 45 46 43 52 48 47 36 34 35 38 34 34 34 36 37 41 43
Lifted_Index
-5 -5 -4 -4 -3 -3 -3 -3 -2 -1 -1 -0 -0 0 1 2 2 2 2 2 2 2 2 2 3 3 3 4 4 4 4 4 5 5 5 6 6 6 6 7 7 8 8
-5 -5 -5 -4 -3 -3 -2 -2 -1 -1 -0 -0 -0 0 1 2 2 2 2 3 3 3 3 3 3 3 4 4 5 5 5 5 6 6 7 7 7 7 7 8 8 8 8
-6 -5 -5 -4 -3 -2 -1 -1 -1 -0 0 0 0 0 1 1 2 2 2 3 3 3 3 4 4 4 5 5 6 6 6 7 7 8 8 8 9 9 9 9 9 9 9
-6 -5 -5 -4 -3 -1 -0 0 0 0 1 1 0 1 1 1 2 2 2 3 3 3 4 4 5 5 5 6 6 7 7 7 8 8 9 9 9 10 10 10 10 10 10
-5 -5 -4 -4 -2 -1 0 1 1 1 1 1 1 1 1 2 2 2 2 3 3 3 4 4 5 5 6 6 6 7 7 8 8 9 9 9 10 10 10 10 10 10 10
-5 -5 -4 -3 -2 -1 0 1 2 2 2 2 2 2 2 2 2 2 2 3 3 3 4 4 5 5 6 6 6 6 7 7 8 9 9 10 10 10 11 10 10 11 11
-5 -5 -4 -3 -2 -1 0 1 2 2 3 3 3 3 3 2 2 2 2 3 3 3 3 4 4 5 6 6 6 6 6 7 7 8 9 9 10 10 11 11 11 11 11
-5 -4 -3 -2 -1 -1 0 1 1 1 3 3 3 3 3 2 2 2 2 3 3 3 3 4 4 5 5 6 6 6 6 6 7 8 8 9 10 10 10 11 11 11 11
-4 -4 -3 -2 -2 -1 -0 0 0 0 1 2 3 3 2 2 2 2 3 3 3 3 3 4 4 5 5 6 6 6 6 6 6 7 8 8 9 10 10 10 10 11 11
-4 -4 -4 -3 -2 -2 -2 -1 -1 -0 -0 1 2 3 3 3 2 2 2 3 3 3 3 4 4 5 5 6 6 6 7 7 7 7 7 8 8 9 10 10 10 11 11
-5 -4 -4 -4 -3 -3 -3 -3 -2 -1 -1 -0 0 2 2 2 2 2 2 2 3 3 3 4 4 5 5 5 6 6 7 7 7 7 7 7 8 9 9 10 10 10 10
-5 -5 -4 -4 -4 -4 -4 -4 -3 -2 -1 -1 -1 0 1 1 1 1 1 2 2 3 3 3 4 4 4 5 5 6 6 7 7 7 7 7 8 8 9 9 10 10 10
-4 -4 -4 -4 -5 -5 -5 -5 -4 -3 -2 -2 -1 -1 -0 0 1 1 1 1 1 2 3 3 3 3 3 4 4 5 5 6 7 7 7 8 8 8 8 9 9 10 10
-4 -4 -4 -4 -5 -5 -5 -5 -4 -4 -3 -2 -2 -1 -1 -0 1 1 1 1 0 1 1 2 2 2 2 2 2 3 4 5 5 6 6 7 7 8 8 9 9 10 10
-4 -4 -4 -4 -4 -4 -4 -4 -4 -4 -4 -3 -2 -2 -1 -1 -1 -0 0 0 -0 -0 -0 1 1 1 1 1 1 2 2 3 4 4 5 6 6 7 7 8 9 9 10
-4 -4 -4 -3 -3 -3 -3 -4 -4 -4 -4 -3 -3 -2 -2 -2 -2 -1 -1 -1 -0 -1 -1 -0 0 0 0 0 0 1 1 2 3 3 4 4 5 5 6 7 8 9 9
-4 -4 -3 -3 -3 -3 -3 -3 -2 -2 -3 -3 -3 -2 -2 -2 -2 -2 -2 -2 -1 -1 -1 -1 -1 -1 -1 -1 -0 0 0 1 1 2 3 4 4 4 5 5 6 8 8
-4 -3 -3 -2 -2 -2 -2 -1 -1 -1 -1 -2 -2 -2 -2 -2 -2 -2 -2 -2 -2 -2 -2 -1 -1 -1 -1 -1 -1 -1 -1 -0 0 1 2 3 3 4 4 5 5 7 7
-3 -3 -2 -1 -1 -1 -0 -0 -0 -0 -1 -1 -1 -1 -1 -1 -1 -1 -1 -1 -2 -2 -2 -2 -2 -2 -2 -2 -2 -2 -1 -1 -1 0 1 2 3 3 4 4 5 6 6
-0 -0 1 2 1 1 0 1 0 -0 -0 -0 -0 0 1 0 0 0 -0 -0 -0 -1 -1 -1 -1 -1 -1 -2 -2 -2 -2 -2 -1 -1 0 1 2 3 4 4 5 5 6
5 4 5 5 4 3 2 1 1 0 0 0 0 1 1 1 1 1 1 1 1 1 1 1 1 1 0 -1 -1 -1 -1 -1 -1 -1 -0 0 1 2 3 3 4 5 6
10 9 9 9 8 7 5 3 2 1 0 0 1 1 1 1 1 1 2 2 2 2 2 2 2 2 1 0 -0 -0 -0 -1 -0 -0 0 1 1 1 2 3 3 4 5
14 13 13 12 12 12 10 8 5 4 2 2 1 1 1 1 1 1 1 1 1 2 2 2 2 2 1 0 1 1 0 0 1 1 1 1 2 2 3 3 4 4 5
15 15 14 15 15 15 14 13 11 8 6 5 4 2 2 1 1 1 1 1 2 2 2 2 1 1 1 1 1 1 1 1 2 2 2 2 2 3 4 4 5 5 6
16 16 15 15 16 16 16 15 14 12 11 9 8 6 5 3 3 2 2 2 2 2 2 2 2 2 2 2 1 2 2 2 2 2 2 2 3 3 4 4 5 6 6
17 17 16 16 16 16 16 16 15 14 13 12 11 10 8 6 4 3 2 2 2 2 2 2 2 2 2 2 2 2 2 2 2 2 2 3 3 3 3 4 4 5 6